User: anonymous   Login
Location: Orange Harbor Mobile Home Park
(26.6923°N, 81.7937°W)
Time: 02:58:59
(UTC+00:00)
Language:

IRIDIUM 104 - Orbit

View from above orbital plane
View from above orbital plane
View from above satellite
View from above satellite

Ground track
Ground track

The orbit data is extracted from the following two-line orbital elements,

1 41922U 17003F   20332.73649956 +.00000083 +00000-0 +22505-4 0  9997
2 41922 086.4016 215.6315 0002299 089.0084 271.1375 14.34215088202678
Epoch (UTC): 27 November 2020 17:40:33
Eccentricity: 0.0002299
inclination: 86.4016°
perigee height: 776 km
apogee height: 779 km
right ascension of ascending node: 215.6315°
argument of perigee: 89.0084°
revolutions per day: 14.34215088
mean anomaly at epoch: 271.1375°
orbit number at epoch: 20267

The dashed part of the orbit path shows where the satellite is in the earth's shadow,  

DLR